FLOCK 4BE-17

Last updated on Mon Sep 16 2024 00:02:03 GMT+0000 (Coordinated Universal Time)

1 60492U 24149AA 24259.16569384 .00015922 00000+0 77537-3 0 9995 2 60492 97.4440 334.2780 0004416 25.9262 334.2192 15.18437175 4458
UTC large
Height (km)
Speed (km/s)
/
Latitude / Longitude
Inclination (degrees)
Orbital Period (minutes)
Azimuth
Elevation
Range (km)
Doppler Factor

Next 0 passes for location: London (51.5072 / 0.1276)

Sorry there are no passes over London.